Terminal Aerodrome Forecast
Issued by NWS North Platte, NE

Home | Current Version | Previous Version | Text Only | Print | Product List | Glossary On
Versions: 1 2 3 4 5 6 7 8 9 10 11 12 13 14
000
FTUS43 KLBF 230254 AAA
TAFVTN
TAF AMD
KVTN 230254Z 2303/2324 18012KT P6SM SCT200 WS020/19040KT
     FM231200 20012G18KT P6SM SCT200
     FM231600 23015G22KT P6SM SCT200
     FM231900 27012KT P6SM SCT200
     FM232100 34015G22KT P6SM SCT200=

USA.gov is the U.S. government's official web portal to all federal, state and local government web resources and services.